格洛纳斯-764 COSMOS 2296 [GLONASS]

导读 | 星芒AI

COSMOS 2296 是一颗俄罗斯 GLONASS 卫星,于 1996 年发射,用于全球导航卫星系统。它属于 GLONASS-M 系列,旨在提供高精度的定位和导航服务。该卫星运行在中地球轨道,设计寿命较长,是俄罗斯空间导航基础设施的重要组成部分。COSMOS 2296 在全球范围内支持民用和军用导航应用,与其他 GLONASS 卫星协同工作,增强系统稳定性和覆盖范围。

基本信息
目录编号:
23397
目录名称:
COSMOS 2296 (GLONASS)
国际标识:
1994-076B
轨道中心:
EARTH
卫星名称:
格洛纳斯-764
卫星全名:
格洛纳斯-764 COSMOS 2296 [GLONASS]
卫星状态:
在轨 (已飞行11304 天)
发射日期:
1994-11-20 UTC
国别 :
俄罗斯(独联体) (CIS)
星等 :
--
轨道信息
数据来源 国际轨道数据
星历时间: 2025-10-30T09:55:42+0800
2天前
查看轨道信息
半长轴: 25508.224km
偏心率: 0.0010038
轨道倾角: 64.702°
近地点辐角 253.101°
升交点赤经 76.892°
平近点角 283.726°
近地点: 19104.483km
远地点: 19155.695km
周期: 675.741分钟
每日圈数: 2.130995
详细信息
平衡模式:
三轴稳定
覆盖范围:
全球
运营商:
列舍特涅夫卫星信息系统
运营商所在国:
俄罗斯
制造商(研发单位):
列舍特涅夫卫星信息系统
制造商所在国:
俄罗斯
使用方式:
暂无
卫星简介
格洛纳斯(GLONASS )是苏联/俄罗斯研制卫星导航系统。标准配置为24颗卫星,其中18颗卫星就能保证该系统为俄罗斯境内用户提供全部服务。该卫星已退役。
2D轨道图
3D轨道图
轨道高度分析图
轨道倾角分析图
轨道综合分析图
查看轨道综合分析图